THEMIS E

Last updated on Thu Jul 03 2025 00:02:38 GMT+0000 (Coordinated Universal Time)

1 30798U 07004E 25182.61761380 -.00000458 00000+0 00000+0 0 9994 2 30798 0.9970 253.4686 8418736 19.6972 11.7423 0.87837715 62832
UTC large
Height (km)
Speed (km/s)
/
Latitude / Longitude
Inclination (degrees)
Orbital Period (minutes)
Azimuth
Elevation
Range (km)
Doppler Factor

Next 0 passes for location: London (51.5072 / 0.1276)

Sorry there are no passes over London.